Englewood, Florida, United States (34223)
Lat: 26.96N, Lon: 82.35W
Wx Zone: FLZ060
Local Info
Past Weather Observations for Wednesday, October 22, 2014

NOTE: This archive is for the closest National Weather Service station to Englewood. Information may differ from the station used for current weather conditions.

Click here for Long-term Archive

Time Weather Temperature Dewpoint Humidity Pressure Winds Precip Visibility
23:53
Partly Cloudy
72°F / 22°C 66°F / 19°C 83% 29.98 in
(1015 mb)
NE 9.2 mph
(NE 15 kph)
- 10SM
22:53
Clear
73°F / 23°C 66°F / 19°C 78% 29.98 in
(1015 mb)
ENE 9.2 mph
(ENE 15 kph)
- 10SM
21:53
Clear
73°F / 23°C 70°F / 21°C 89% 29.98 in
(1015 mb)
ENE 8.1 mph
(ENE 13 kph)
- 10SM
20:53
Clear
75°F / 24°C 70°F / 21°C 83% 29.98 in
(1015 mb)
E 4.6 mph
(E 7 kph)
- 10SM
19:53
Clear
75°F / 24°C 70°F / 21°C 83% 29.98 in
(1015 mb)
NE 4.6 mph
(NE 7 kph)
- 10SM
18:53
Clear
77°F / 25°C 70°F / 21°C 79% 29.95 in
(1014 mb)
NE 5.8 mph
(NE 9 kph)
- 10SM
17:53
Clear
79°F / 26°C 72°F / 22°C 79% 29.95 in
(1014 mb)
ENE 4.6 mph
(ENE 7 kph)
- 10SM
16:53
Clear
82°F / 28°C 68°F / 20°C 62% 29.95 in
(1014 mb)
E 4.6 mph
(E 7 kph)
- 10SM
15:53
Clear
84°F / 29°C 68°F / 20°C 58% 29.95 in
(1014 mb)
NE 3.5 mph
(NE 6 kph)
- 10SM
14:53
Clear
84°F / 29°C 70°F / 21°C 62% 29.92 in
(1013 mb)
NE 9.2 mph
(NE 15 kph)
- 10SM
13:53
Clear
84°F / 29°C 70°F / 21°C 62% 29.95 in
(1014 mb)
NE 4.6 mph
(NE 7 kph)
- 10SM
12:53
Partly Cloudy
84°F / 29°C 70°F / 21°C 62% 29.98 in
(1015 mb)
ENE 6.9 mph
(ENE 11 kph)
- 10SM
11:53
Clear
82°F / 28°C 70°F / 21°C 66% 30.01 in
(1016 mb)
E 8.1 mph
(E 13 kph)
- 10SM
11:05
Partly Cloudy
79°F / 26°C 72°F / 22°C 79% 30.01 in
(1016 mb)
ENE 6.9 mph
(ENE 11 kph)
- 10SM
10:53
Mostly Cloudy
79°F / 26°C 72°F / 22°C 79% 30.01 in
(1016 mb)
NE 5.8 mph
(NE 9 kph)
- 10SM
10:29
Overcast
75°F / 24°C 72°F / 22°C 89% 30.01 in
(1016 mb)
NE 6.9 mph
(NE 11 kph)
- 10SM
09:53
Overcast
75°F / 24°C 72°F / 22°C 89% 30.01 in
(1016 mb)
ENE 5.8 mph
(ENE 9 kph)
- 10SM
09:35
Mostly Cloudy
73°F / 23°C 72°F / 22°C 94% 30.01 in
(1016 mb)
NE 5.8 mph
(NE 9 kph)
- 9SM
08:53
Mostly Cloudy
73°F / 23°C 72°F / 22°C 94% 30.01 in
(1016 mb)
NE 5.8 mph
(NE 9 kph)
- 7SM
08:33
Partly Cloudy
73°F / 23°C 72°F / 22°C 94% 30.01 in
(1016 mb)
E 4.6 mph
(E 7 kph)
- 8SM
08:00
Overcast
72°F / 22°C 70°F / 21°C 94% 30.01 in
(1016 mb)
Calm - 7SM
07:53
Overcast
Fog And Mist
72°F / 22°C 70°F / 21°C 94% 30.01 in
(1016 mb)
E 3.5 mph
(E 6 kph)
- 2SM
07:45
Overcast
Fog And Mist
72°F / 22°C 70°F / 21°C 94% 30.01 in
(1016 mb)
ENE 3.5 mph
(ENE 6 kph)
- 1SM
07:21
Overcast
Fog
72°F / 22°C 70°F / 21°C 94% 30.01 in
(1016 mb)
ESE 3.5 mph
(ESE 6 kph)
- 1/2SM
07:16
Overcast
Fog And Mist
72°F / 22°C 70°F / 21°C 94% 30.01 in
(1016 mb)
SE 3.5 mph
(SE 6 kph)
- 2SM
07:01
Mostly Cloudy
Fog And Mist
72°F / 22°C 70°F / 21°C 94% 29.98 in
(1015 mb)
Calm - 3SM
06:49
Mostly Cloudy
72°F / 22°C 70°F / 21°C 94% 29.98 in
(1015 mb)
ENE 3.5 mph
(ENE 6 kph)
- 7SM
06:48
Mostly Cloudy
72°F / 22°C 70°F / 21°C 94% 29.98 in
(1015 mb)
ENE 3.5 mph
(ENE 6 kph)
- 7SM
05:53
Clear
70°F / 21°C 70°F / 21°C 100% 29.98 in
(1015 mb)
ENE 3.5 mph
(ENE 6 kph)
- 7SM
04:53
Clear
72°F / 22°C 70°F / 21°C 94% 29.95 in
(1014 mb)
Calm - 8SM
03:53
Clear
72°F / 22°C 70°F / 21°C 94% 29.95 in
(1014 mb)
Calm - 9SM
02:53
Clear
72°F / 22°C 70°F / 21°C 94% 29.95 in
(1014 mb)
Calm - 9SM
01:53
Clear
72°F / 22°C 70°F / 21°C 94% 29.95 in
(1014 mb)
Calm - 9SM
00:53
Clear
73°F / 23°C 72°F / 22°C 94% 29.95 in
(1014 mb)
SSE 3.5 mph
(SSE 6 kph)
- 10SM
Time Weather Temperature Dewpoint Humidity Pressure Winds Precip Visibility


Weather for websites

WeatherForYou.com, LLC is not responsible for any damages or problems caused by this service. Current weather conditions are obtained from the closest station including government and personal stations which may have varying degrees of accuracy. Weather forecasts are derived from the NOAA NDFD. Like all things, this site belongs to Jesus Christ... He just trusts me to maintain it. If you have any questions or comments email webmaster@weatherforyou.com

Copyright © 2014, WeatherForYou.com LLC. All rights reserved.